Powrót do katalogu

COSMOS 1823 DEB

AktywnyLEO
NORAD 39834·DEBRIS·🇷🇺 Russia

Wystrzelony Feb 20, 1987 z Plesetsk Cosmodrome

Loading…

Następne Przeloty (najbliższe 24 godziny)

TLE

Starzejące sięSource: Space-Track

Epoka: Sep 12, 2026, 02:56 UTC

1 39834U 87020FJ  26255.12228196 -.00000032  00000-0 -11168-3 0  9992
2 39834  73.6000  42.0917 0047405 253.5330 106.0499 12.37995755796766

Śledź COSMOS 1823 DEB w czasie rzeczywistym z AllMySat

Download on the App Store